This is the latest recevied weather packets stored in our database for station/object KC5DP. If no packets are shown the sender has not sent any weather packets the latest 10 day(s).
| Time | Temp. | Humidity | Pressure | Rain* | Wind** | Luminosity | Snow |
|---|---|---|---|---|---|---|---|
| 1777831570 | 23.89° C | 37% | 1020.9 hPa | 0 mm | - | 808 W/m² | - |
| 1777831269 | 23.89° C | 38% | 1020.8 hPa | 0 mm | - | 810 W/m² | - |
| 1777830965 | 23.33° C | 39% | 1021 hPa | 0 mm | - | 816 W/m² | - |
| 1777830662 | 23.89° C | 39% | 1021.2 hPa | 0 mm | - | 813 W/m² | - |
| 1777830359 | 23.89° C | 39% | 1021.2 hPa | 0 mm | - | 813 W/m² | - |
| 1777830055 | 23.33° C | 42% | 1021 hPa | 0 mm | - | 811 W/m² | - |
| 1777829750 | 23.89° C | 41% | 1021.4 hPa | 0 mm | - | 800 W/m² | - |
| 1777829447 | 23.33° C | 43% | 1021.2 hPa | 0 mm | - | 800 W/m² | - |
| 1777829145 | 24.44° C | 38% | 1021.3 hPa | 0 mm | - | 787 W/m² | - |
| 1777828842 | 24.44° C | 38% | 1021.3 hPa | 0 mm | - | 787 W/m² | - |
| 1777828538 | 24.44° C | 38% | 1021.3 hPa | 0 mm | - | 787 W/m² | - |
| 1777828236 | 23.33° C | 36% | 1021.5 hPa | 0 mm | - | 775 W/m² | - |
| 1777827932 | 23.33° C | 36% | 1021.5 hPa | 0 mm | - | 775 W/m² | - |
| 1777827629 | 23.33° C | 40% | 1021.7 hPa | 0 mm | - | 767 W/m² | - |
| 1777827326 | 23.33° C | 40% | 1021.7 hPa | 0 mm | - | 767 W/m² | - |
| 1777827023 | 23.89° C | 41% | 1021.8 hPa | 0 mm | - | 766 W/m² | - |
| 1777826720 | 23.89° C | 38% | 1021.9 hPa | 0 mm | - | 772 W/m² | - |
| 1777826416 | 23.33° C | 40% | 1022.1 hPa | 0 mm | - | 735 W/m² | - |
| 1777826114 | 23.33° C | 40% | 1022.1 hPa | 0 mm | - | 735 W/m² | - |
| 1777825811 | 23.33° C | 37% | 1021.9 hPa | 0 mm | - | 730 W/m² | - |
| 1777825508 | 23.33° C | 40% | 1022.1 hPa | 0 mm | - | 715 W/m² | - |
| 1777825206 | 22.78° C | 42% | 1022.2 hPa | 0 mm | - | 708 W/m² | - |
| 1777824902 | 22.78° C | 43% | 1022.2 hPa | 0 mm | - | 699 W/m² | - |
| 1777824598 | 23.33° C | 38% | 1022.4 hPa | 0 mm | - | 686 W/m² | - |
| 1777824295 | 23.33° C | 39% | 1022.3 hPa | 0 mm | - | 681 W/m² | - |
* Rain latest hour (hover to see other rain measurements)
** Current wind speed in m/s (hover to see current wind gust speed)